| time (UTC) | temp F | wind direction | speed knots | gust knots | rain 1hr in | rain 24hr in | rain mn in | humidity % | barometer mb |
| 20260505204531 | 34 | 84 | 0.0 | 0.0 | 0.00 | 0.00 | 0.00 | 64 | 1010.1 |
| 20260505203027 | 35 | 84 | 0.0 | 0.9 | 0.00 | 0.00 | 0.00 | 61 | 1009.9 |
| 20260505201519 | 36 | 84 | 0.0 | 0.9 | 0.00 | 0.00 | 0.00 | 60 | 1009.9 |
| 20260505200016 | 39 | 84 | 0.0 | 0.9 | 0.00 | 0.00 | 0.00 | 52 | 1009.7 |
| 20260505194513 | 40 | 84 | 0.0 | 0.0 | 0.00 | 0.00 | 0.00 | 47 | 1009.6 |
| 20260505193010 | 41 | 84 | 0.0 | 0.0 | 0.00 | 0.00 | 0.00 | 46 | 1009.4 |
| 20260505191506 | 42 | 84 | 0.0 | 0.0 | 0.00 | 0.00 | 0.00 | 45 | 1009.4 |
| 20260505190004 | 44 | 84 | 0.0 | 2.6 | 0.00 | 0.00 | 0.00 | 41 | 1009.3 |
| 20260505184502 | 46 | 84 | 0.0 | 2.6 | 0.00 | 0.00 | 0.00 | 38 | 1009.1 |
| 20260505183059 | 47 | 84 | 0.0 | 2.6 | 0.00 | 0.00 | 0.00 | 38 | 1008.9 |
| 20260505181557 | 48 | 86 | 1.7 | 6.1 | 0.00 | 0.00 | 0.00 | 37 | 1008.7 |
| 20260505180055 | 48 | 95 | 3.5 | 7.0 | 0.00 | 0.00 | 0.00 | 35 | 1008.6 |
| 20260505174554 | 49 | 97 | 2.6 | 6.1 | 0.00 | 0.00 | 0.00 | 36 | 1008.4 |
| 20260505173052 | 50 | 78 | 2.6 | 7.0 | 0.00 | 0.00 | 0.00 | 34 | 1008.4 |
| 20260505171552 | 50 | 1 | 2.6 | 7.8 | 0.00 | 0.00 | 0.00 | 33 | 1008.3 |
| 20260505170050 | 50 | 75 | 5.2 | 9.6 | 0.00 | 0.00 | 0.00 | 34 | 1008.2 |
| 20260505164549 | 51 | 80 | 2.6 | 9.6 | 0.00 | 0.00 | 0.00 | 34 | 1008.2 |
| 20260505163048 | 50 | 114 | 3.5 | 7.8 | 0.00 | 0.00 | 0.00 | 34 | 1008.1 |
| 20260505161546 | 51 | 73 | 3.5 | 7.8 | 0.00 | 0.00 | 0.00 | 35 | 1008.1 |
| 20260505153047 | 51 | 88 | 3.5 | 7.8 | 0.00 | 0.00 | 0.00 | 34 | 1008.0 |
| 20260505151541 | 51 | 93 | 3.5 | 8.7 | 0.00 | 0.00 | 0.00 | 33 | 1008.0 |
| 20260505124524 | 50 | 99 | 4.3 | 10.4 | 0.00 | 0.00 | 0.00 | 37 | 1008.1 |
| 20260505123022 | 50 | 154 | 3.5 | 10.4 | 0.00 | 0.00 | 0.00 | 39 | 1008.1 |
| 20260505121520 | 50 | 72 | 5.2 | 13.9 | 0.00 | 0.00 | 0.00 | 38 | 1008.0 |
| 20260505120033 | 50 | 109 | 5.2 | 13.0 | 0.00 | 0.00 | 0.00 | 39 | 1007.9 |
| 20260505114517 | 49 | 71 | 8.7 | 15.6 | 0.00 | 0.00 | 0.00 | 37 | 1007.9 |
| 20260505113016 | 49 | 104 | 6.1 | 15.6 | 0.00 | 0.00 | 0.00 | 43 | 1008.0 |
| 20260505111523 | 49 | 47 | 7.8 | 12.2 | 0.00 | 0.00 | 0.00 | 39 | 1007.9 |
| 20260505101508 | 48 | 108 | 6.1 | 13.9 | 0.00 | 0.00 | 0.00 | 44 | 1007.7 |
| 20260505100007 | 48 | 59 | 7.0 | 16.5 | 0.00 | 0.00 | 0.00 | 44 | 1007.6 |
| 20260505094506 | 47 | 107 | 7.0 | 14.8 | 0.00 | 0.00 | 0.00 | 44 | 1007.7 |
| 20260505093004 | 47 | 77 | 10.4 | 14.8 | 0.00 | 0.00 | 0.00 | 43 | 1007.5 |
| 20260505091501 | 47 | 90 | 8.7 | 16.5 | 0.00 | 0.00 | 0.00 | 47 | 1007.4 |
| 20260505090123 | 47 | 73 | 7.0 | 13.9 | 0.00 | 0.00 | 0.00 | 49 | 1007.3 |
| 20260505084615 | 47 | 90 | 8.7 | 16.5 | 0.00 | 0.00 | 0.00 | 50 | 1007.2 |
| 20260505083110 | 46 | 70 | 7.8 | 13.9 | 0.00 | 0.00 | 0.00 | 51 | 1007.1 |
| 20260505081601 | 46 | 72 | 8.7 | 14.8 | 0.00 | 0.00 | 0.00 | 51 | 1007.0 |
| 20260505080100 | 46 | 42 | 8.7 | 13.9 | 0.00 | 0.00 | 0.00 | 54 | 1006.8 |
| 20260505074552 | 46 | 100 | 7.8 | 14.8 | 0.00 | 0.00 | 0.00 | 56 | 1006.8 |
| 20260505073055 | 46 | 60 | 6.1 | 17.4 | 0.00 | 0.00 | 0.00 | 55 | 1006.7 |
| 20260505071554 | 46 | 85 | 7.8 | 13.0 | 0.00 | 0.00 | 0.00 | 58 | 1006.6 |
| 20260505070051 | 46 | 88 | 7.8 | 11.3 | 0.00 | 0.00 | 0.00 | 63 | 1006.4 |
| 20260505064645 | 45 | 94 | 3.5 | 11.3 | 0.00 | 0.00 | 0.00 | 63 | 1006.4 |
| 20260505063051 | 44 | 96 | 7.0 | 12.2 | 0.00 | 0.00 | 0.00 | 62 | 1006.4 |
| 20260505061542 | 44 | 63 | 6.1 | 11.3 | 0.00 | 0.00 | 0.00 | 61 | 1006.3 |
| 20260505060056 | 44 | 71 | 7.8 | 10.4 | 0.00 | 0.00 | 0.00 | 61 | 1006.2 |
| 20260505054540 | 44 | 83 | 4.3 | 9.6 | 0.00 | 0.00 | 0.00 | 62 | 1006.0 |
| 20260505053039 | 44 | 66 | 7.0 | 10.4 | 0.00 | 0.00 | 0.00 | 63 | 1006.0 |
| 20260505051537 | 44 | 108 | 4.3 | 9.6 | 0.00 | 0.00 | 0.00 | 64 | 1005.9 |
| 20260505041541 | 44 | 85 | 3.5 | 9.6 | 0.00 | 0.05 | 0.00 | 83 | 1005.3 |
| 20260505040030 | 44 | 76 | 4.3 | 8.7 | 0.00 | 0.13 | 0.00 | 83 | 1005.1 |
| 20260505034527 | 44 | 56 | 6.1 | 11.3 | 0.00 | 0.13 | 0.00 | 83 | 1005.0 |
| 20260505033027 | 43 | 78 | 4.3 | 9.6 | 0.00 | 0.13 | 0.00 | 83 | 1004.9 |
| 20260505031525 | 43 | 66 | 5.2 | 14.8 | 0.00 | 0.13 | 0.00 | 83 | 1004.9 |
| 20260505030024 | 43 | 33 | 4.3 | 11.3 | 0.00 | 0.23 | 0.00 | 83 | 1004.9 |
| 20260505024523 | 43 | 71 | 7.0 | 12.2 | 0.00 | 0.23 | 0.00 | 83 | 1004.8 |
| 20260505023022 | 43 | 53 | 5.2 | 10.4 | 0.00 | 0.23 | 0.00 | 83 | 1004.8 |
| 20260505021519 | 43 | 52 | 6.1 | 10.4 | 0.00 | 0.23 | 0.00 | 83 | 1004.7 |
| 20260505020023 | 43 | 43 | 6.1 | 11.3 | 0.00 | 0.24 | 0.00 | 82 | 1004.7 |
| 20260505014530 | 44 | 55 | 5.2 | 13.0 | 0.00 | 0.24 | 0.00 | 82 | 1004.7 |
| 20260505013014 | 44 | 66 | 8.7 | 12.2 | 0.00 | 0.24 | 0.00 | 81 | 1004.7 |
| 20260505011512 | 44 | 47 | 6.1 | 15.6 | 0.00 | 0.24 | 0.00 | 80 | 1004.6 |
| 20260505010010 | 44 | 66 | 7.0 | 13.9 | 0.00 | 0.24 | 0.00 | 80 | 1004.7 |
| 20260505004510 | 44 | 33 | 7.0 | 16.5 | 0.00 | 0.24 | 0.00 | 79 | 1004.6 |
| 20260505003007 | 44 | 52 | 7.0 | 11.3 | 0.00 | 0.24 | 0.00 | 78 | 1004.7 |
| 20260505001505 | 45 | 64 | 7.8 | 12.2 | 0.00 | 0.24 | 0.00 | 78 | 1004.6 |
| 20260505000004 | 45 | 36 | 7.8 | 15.6 | 0.00 | 0.24 | 0.00 | 77 | 1004.5 |
| 20260504234601 | 45 | 71 | 6.1 | 13.0 | 0.00 | 0.24 | 0.00 | 76 | 1004.6 |
| 20260504233100 | 45 | 45 | 7.0 | 10.4 | 0.00 | 0.24 | 0.00 | 74 | 1004.6 |
| 20260504231555 | 46 | 60 | 7.8 | 13.0 | 0.00 | 0.24 | 0.00 | 73 | 1004.6 |
| 20260504230053 | 46 | 29 | 7.8 | 11.3 | 0.00 | 0.24 | 0.00 | 71 | 1004.6 |
| 20260504224550 | 46 | 64 | 6.1 | 11.3 | 0.00 | 0.24 | 0.00 | 68 | 1004.7 |
| 20260504223100 | 46 | 50 | 7.8 | 12.2 | 0.00 | 0.24 | 0.00 | 66 | 1004.6 |
| 20260504221545 | 46 | 43 | 5.2 | 10.4 | 0.00 | 0.24 | 0.00 | 63 | 1004.7 |
| 20260504220041 | 46 | 34 | 7.0 | 12.2 | 0.00 | 0.24 | 0.24 | 61 | 1004.7 |
| 20260504214539 | 47 | 53 | 4.3 | 7.8 | 0.00 | 0.24 | 0.24 | 58 | 1004.7 |
| 20260504213038 | 47 | 50 | 4.3 | 11.3 | 0.00 | 0.24 | 0.24 | 56 | 1004.8 |
| 20260504211556 | 47 | 41 | 4.3 | 7.8 | 0.00 | 0.24 | 0.24 | 55 | 1004.7 |
| 20260504210042 | 48 | 40 | 3.5 | 6.1 | 0.00 | 0.24 | 0.24 | 54 | 1004.7 |